Flag for Czech Republic Weather past 2 weeks in Brno, Czech Republic

50 °F

Partly sunny.

Feels Like: 46 °F
Forecast: 39 / 49 °F
Wind: 9 mph from Northwest

Location: Brno / Turany

Current Time: Dec 1, 2015 at 10:43:09 AM

Latest Report: Dec 1, 2015 at 10:00 AM

Visibility: 25 mi

Pressure: 30.06 "Hg

Humidity: 69%

Dew point: 40 °F

Location of BrnoLocation

Historic Weather in Brno — Graph


Brno temperature yesterday

Maximum temperature yesterday: 48 °F (at 11:00 AM)
Minimum temperature yesterday: 40 °F (at 12:00 AM)
Average temperature yesterday: 44 °F

Past Weeks' High & Low Weather Summary

High63 °F (Nov 18, 10:00 AM)97% (Nov 20, 7:00 PM)30.37 "Hg (Nov 20, 7:00 PM)
Low26 °F (Nov 25, 3:00 AM)40% (Nov 18, 1:00 PM)29.41 "Hg (Nov 21, 1:00 AM)
Average41 °F79%29.93 "Hg
* Reported Nov 16 7:00 AM — Dec 1 7:00 AM, Brno, Weather by CustomWeather, © 2015

Note: Actual official high and low records may vary slightly from our data, if they occured in-between our weather recording intervals... More about our weather records


Brno weather history for previous 24 hours

Time TempWeatherWind HumidityBarometerVisibility
7:00 AM
Tue, Dec 1
50 °FLight rain. Overcast.10 mph81%29.94 "Hg19 mi
6:00 AM50 °FLight rain. Overcast.7 mph77%29.91 "Hg19 mi
4:00 AM48 °FLight rain. Overcast.7 mph80%29.90 "Hg19 mi
3:00 AM47 °FLight rain. Passing clouds.9 mph82%29.90 "Hg19 mi
1:00 AM47 °FLight rain. Overcast.7 mph85%29.92 "Hg19 mi
10:00 PM
Mon, Nov 30
41 °FLight rain. Low clouds.2 mph97%29.98 "Hg4 mi
9:00 PM40 °FLight rain. Low clouds.2 mph96%30.01 "Hg4 mi
8:00 PM41 °FLight rain. Overcast.3 mph93%30.04 "Hg10 mi
7:00 PM42 °FLight rain. Overcast.3 mph85%30.06 "Hg10 mi
6:00 PM42 °FLight rain. Overcast.5 mph81%30.08 "Hg19 mi
5:00 PM43 °FOvercast.6 mph80%30.07 "Hg19 mi
4:00 PM44 °FLight rain. Overcast.6 mph83%30.08 "Hg19 mi
3:00 PM45 °FOvercast.7 mph77%30.06 "Hg31 mi
2:00 PM47 °FOvercast.9 mph73%30.06 "Hg25 mi
1:00 PM47 °FOvercast.7 mph81%30.04 "Hg22 mi
12:00 PM47 °FLight rain. Partly sunny.7 mph74%30.04 "Hg19 mi
11:00 AM48 °FLight rain. Overcast.7 mph77%30.03 "Hg19 mi
10:00 AM47 °FLight rain. Overcast.10 mph80%30.02 "Hg9 mi
Weather by CustomWeather, © 2015

See weather overviewHow to use our weather pages